User: anonymous   Login
Location: Ballingbuur
(53.0000°N, 5.7667°E)
Time: 13:20:59
(UTC+00:00)
Language:

Cosmos 1356 - Orbit

View from above orbital plane
View from above orbital plane
View from above satellite
View from above satellite

Ground track
Ground track

The orbit data is extracted from the following two-line orbital elements,

1 13153U 82039A   21125.92152770  .00002671  00000-0  62043-4 0  9994
2 13153  81.0889 325.2108 0001933 199.2656 160.8513 15.41972513137579
Epoch (UTC): 05 May 2021 22:06:59
Eccentricity: 0.0001933
inclination: 81.0889°
perigee height: 439 km
apogee height: 441 km
right ascension of ascending node: 325.2108°
argument of perigee: 199.2656°
revolutions per day: 15.41972513
mean anomaly at epoch: 160.8513°
orbit number at epoch: 13757

The dashed part of the orbit path shows where the satellite is in the earth's shadow,  

DLR